| time (UTC) | temp F | wind direction | speed MPH | gust MPH | rain 1hr in | rain 24hr in | rain mn in | humidity % | barometer mb |
| 20260507092341 | 56 | 31 | 9.0 | 8.0 | 0.00 | 0.00 | 0.00 | ||
| 20260507091839 | 56 | 21 | 9.0 | 11.0 | 0.00 | 0.00 | 0.00 | ||
| 20260507091339 | 56 | 7 | 12.0 | 13.0 | 0.00 | 0.00 | 0.00 | ||
| 20260507090839 | 56 | 14 | 9.0 | 10.0 | 0.00 | 0.00 | 0.00 | ||
| 20260507090337 | 56 | 30 | 10.0 | 9.0 | 0.00 | 0.00 | 0.00 | ||
| 20260507085837 | 56 | 352 | 10.0 | 9.0 | 0.00 | 0.00 | 0.00 | ||
| 20260507085338 | 56 | 25 | 9.0 | 12.0 | 0.00 | 0.00 | 0.00 | ||
| 20260507084835 | 56 | 6 | 10.0 | 9.0 | 0.00 | 0.00 | 0.00 | ||
| 20260507084335 | 56 | 6 | 9.0 | 9.0 | 0.00 | 0.00 | 0.00 | ||
| 20260507083835 | 56 | 3 | 10.0 | 10.0 | 0.00 | 0.00 | 0.00 | ||
| 20260507083333 | 56 | 3 | 11.0 | 12.0 | 0.00 | 0.00 | 0.00 | ||
| 20260507082833 | 57 | 11 | 8.0 | 8.0 | 0.00 | 0.00 | 0.00 | ||
| 20260507082334 | 57 | 8 | 8.0 | 6.0 | 0.00 | 0.00 | 0.00 | ||
| 20260507081831 | 57 | 14 | 7.0 | 7.0 | 0.00 | 0.00 | 0.00 | ||
| 20260507081332 | 57 | 18 | 7.0 | 8.0 | 0.00 | 0.00 | 0.00 | ||
| 20260507080832 | 57 | 8 | 7.0 | 7.0 | 0.00 | 0.00 | 0.00 | ||
| 20260507080330 | 57 | 21 | 7.0 | 8.0 | 0.00 | 0.00 | 0.00 | ||
| 20260507075830 | 57 | 28 | 7.0 | 7.0 | 0.00 | 0.00 | 0.00 | ||
| 20260507075330 | 57 | 28 | 8.0 | 8.0 | 0.00 | 0.00 | 0.00 | ||
| 20260507074828 | 57 | 8 | 7.0 | 6.0 | 0.00 | 0.00 | 0.00 | ||
| 20260507074328 | 57 | 6 | 8.0 | 8.0 | 0.00 | 0.00 | 0.00 | ||
| 20260507073829 | 57 | 10 | 8.0 | 6.0 | 0.00 | 0.00 | 0.00 | ||
| 20260507073326 | 57 | 1 | 9.0 | 11.0 | 0.00 | 0.00 | 0.00 | ||
| 20260507072827 | 57 | 7 | 10.0 | 8.0 | 0.00 | 0.00 | 0.00 | ||
| 20260507072327 | 57 | 15 | 9.0 | 8.0 | 0.00 | 0.00 | 0.00 | ||
| 20260507071825 | 57 | 347 | 9.0 | 10.0 | 0.00 | 0.00 | 0.00 | ||
| 20260507071325 | 57 | 4 | 10.0 | 11.0 | 0.00 | 0.00 | 0.00 | ||
| 20260507070826 | 58 | 8 | 9.0 | 11.0 | 0.00 | 0.00 | 0.00 | ||
| 20260507070323 | 57 | 13 | 9.0 | 10.0 | 0.00 | 0.00 | 0.00 | ||
| 20260507065824 | 57 | 13 | 8.0 | 6.0 | 0.00 | 0.00 | 0.00 | ||
| 20260507065324 | 57 | 34 | 8.0 | 9.0 | 0.00 | 0.00 | 0.00 | ||
| 20260507064822 | 58 | 25 | 8.0 | 9.0 | 0.00 | 0.00 | 0.00 | ||
| 20260507064322 | 57 | 4 | 8.0 | 9.0 | 0.00 | 0.00 | 0.00 | ||
| 20260507063823 | 58 | 13 | 8.0 | 9.0 | 0.00 | 0.00 | 0.00 | ||
| 20260507063320 | 58 | 18 | 6.0 | 8.0 | 0.00 | 0.00 | 0.00 | ||
| 20260507062821 | 58 | 25 | 7.0 | 8.0 | 0.00 | 0.00 | 0.00 | ||
| 20260507062321 | 58 | 10 | 9.0 | 6.0 | 0.00 | 0.00 | 0.00 | ||
| 20260507061819 | 58 | 13 | 9.0 | 9.0 | 0.00 | 0.00 | 0.00 | ||
| 20260507061320 | 58 | 15 | 7.0 | 8.0 | 0.00 | 0.00 | 0.00 | ||
| 20260507060820 | 58 | 24 | 8.0 | 9.0 | 0.00 | 0.00 | 0.00 | ||
| 20260507060721 | 58 | 17 | 8.0 | 5.0 | 0.00 | 0.00 | 0.00 | ||
| 20260507060318 | 58 | 17 | 8.0 | 5.0 | 0.00 | 0.00 | 0.00 | ||
| 20260507055818 | 58 | 37 | 8.0 | 8.0 | 0.00 | 0.00 | 0.00 | ||
| 20260507055319 | 58 | 41 | 8.0 | 7.0 | 0.00 | 0.00 | 0.00 | ||
| 20260507054817 | 59 | 31 | 9.0 | 7.0 | 0.00 | 0.00 | 0.00 | ||
| 20260507054317 | 59 | 30 | 6.0 | 5.0 | 0.00 | 0.00 | 0.00 | ||
| 20260507053818 | 59 | 38 | 7.0 | 9.0 | 0.00 | 0.00 | 0.00 | ||
| 20260507053315 | 59 | 59 | 9.0 | 8.0 | 0.00 | 0.00 | 0.00 | ||
| 20260507052816 | 59 | 30 | 9.0 | 10.0 | 0.00 | 0.00 | 0.00 | ||
| 20260507052316 | 59 | 11 | 8.0 | 10.0 | 0.00 | 0.00 | 0.00 | ||
| 20260507051814 | 59 | 31 | 8.0 | 9.0 | 0.00 | 0.00 | 0.00 | ||
| 20260507051314 | 60 | 30 | 7.0 | 8.0 | 0.00 | 0.00 | 0.00 | ||
| 20260507050815 | 60 | 44 | 8.0 | 9.0 | 0.00 | 0.00 | 0.00 | ||
| 20260507050313 | 60 | 27 | 8.0 | 6.0 | 0.00 | 0.00 | 0.00 | ||
| 20260507045813 | 60 | 49 | 9.0 | 7.0 | 0.00 | 0.00 | 0.00 | ||
| 20260507045313 | 60 | 37 | 9.0 | 10.0 | 0.00 | 0.00 | 0.00 | ||
| 20260507044811 | 60 | 31 | 7.0 | 9.0 | 0.00 | 0.00 | 0.00 | ||
| 20260507044312 | 61 | 48 | 7.0 | 9.0 | 0.00 | 0.00 | 0.00 | ||
| 20260507043812 | 61 | 65 | 10.0 | 8.0 | 0.00 | 0.00 | 0.00 | ||
| 20260507043310 | 61 | 65 | 11.0 | 11.0 | 0.00 | 0.00 | 0.00 | ||
| 20260507042810 | 61 | 21 | 9.0 | 11.0 | 0.00 | 0.00 | 0.00 | ||
| 20260507042311 | 61 | 14 | 10.0 | 10.0 | 0.00 | 0.00 | 0.00 | ||
| 20260507041808 | 61 | 44 | 8.0 | 9.0 | 0.00 | 0.00 | 0.00 | ||
| 20260507041309 | 62 | 28 | 7.0 | 7.0 | 0.00 | 0.00 | 0.00 | ||
| 20260507040809 | 62 | 45 | 7.0 | 7.0 | 0.00 | 0.00 | 0.00 | ||
| 20260507040307 | 62 | 52 | 5.0 | 5.0 | 0.00 | 0.00 | 0.00 | ||
| 20260507035807 | 62 | 42 | 5.0 | 6.0 | 0.00 | 0.00 | 0.00 | ||
| 20260507035308 | 63 | 42 | 6.0 | 7.0 | 0.00 | 0.00 | 0.00 | ||
| 20260507034806 | 63 | 52 | 7.0 | 7.0 | 0.00 | 0.00 | 0.00 | ||
| 20260507034306 | 63 | 44 | 8.0 | 10.0 | 0.00 | 0.00 | 0.00 | ||
| 20260507033304 | 63 | 89 | 6.0 | 8.0 | 0.00 | 0.00 | 0.00 | ||
| 20260507032804 | 63 | 70 | 7.0 | 7.0 | 0.00 | 0.00 | 0.00 | ||
| 20260507032306 | 64 | 62 | 5.0 | 5.0 | 0.00 | 0.00 | 0.00 | ||
| 20260507031803 | 64 | 49 | 3.0 | 6.0 | 0.00 | 0.00 | 0.00 | ||
| 20260507031303 | 64 | 53 | 6.0 | 4.0 | 0.00 | 0.00 | 0.00 | ||
| 20260507030804 | 64 | 35 | 7.0 | 7.0 | 0.00 | 0.00 | 0.00 | ||
| 20260507030301 | 64 | 66 | 7.0 | 7.0 | 0.00 | 0.00 | 0.00 | ||
| 20260507025802 | 65 | 75 | 7.0 | 8.0 | 0.00 | 0.00 | 0.00 | ||
| 20260507025306 | 64 | 42 | 8.0 | 7.0 | 0.00 | 0.00 | 0.00 | ||
| 20260507024800 | 65 | 31 | 4.0 | 3.0 | 0.00 | 0.00 | 0.00 | ||
| 20260507024301 | 65 | 72 | 4.0 | 4.0 | 0.00 | 0.00 | 0.00 | ||
| 20260507023801 | 65 | 45 | 5.0 | 6.0 | 0.00 | 0.00 | 0.00 | ||
| 20260507023259 | 65 | 56 | 7.0 | 6.0 | 0.00 | 0.00 | 0.00 | ||
| 20260507022759 | 65 | 56 | 7.0 | 6.0 | 0.00 | 0.00 | 0.00 | ||
| 20260507022300 | 66 | 39 | 7.0 | 7.0 | 0.00 | 0.00 | 0.00 | ||
| 20260507021757 | 67 | 42 | 5.0 | 5.0 | 0.00 | 0.00 | 0.00 | ||
| 20260507021258 | 67 | 69 | 8.0 | 5.0 | 0.00 | 0.00 | 0.00 | ||
| 20260507020758 | 67 | 68 | 10.0 | 8.0 | 0.00 | 0.00 | 0.00 | ||
| 20260507020256 | 67 | 69 | 6.0 | 5.0 | 0.00 | 0.00 | 0.00 | ||
| 20260507015757 | 67 | 51 | 8.0 | 6.0 | 0.00 | 0.00 | 0.00 | ||
| 20260507015257 | 67 | 48 | 5.0 | 8.0 | 0.00 | 0.00 | 0.00 | ||
| 20260507014755 | 67 | 58 | 5.0 | 4.0 | 0.00 | 0.00 | 0.00 | ||
| 20260507014255 | 68 | 27 | 4.0 | 5.0 | 0.00 | 0.00 | 0.00 | ||
| 20260507013756 | 68 | 51 | 4.0 | 4.0 | 0.00 | 0.00 | 0.00 | ||
| 20260507013253 | 69 | 49 | 8.0 | 8.0 | 0.00 | 0.00 | 0.00 | ||
| 20260507012753 | 68 | 51 | 8.0 | 8.0 | 0.00 | 0.00 | 0.00 | ||
| 20260507012253 | 68 | 44 | 7.0 | 9.0 | 0.00 | 0.00 | 0.00 | ||
| 20260507011750 | 69 | 73 | 8.0 | 10.0 | 0.00 | 0.00 | 0.00 | ||
| 20260507011251 | 69 | 31 | 7.0 | 6.0 | 0.00 | 0.00 | 0.00 | ||
| 20260507010751 | 69 | 46 | 6.0 | 6.0 | 0.00 | 0.00 | 0.00 | ||
| 20260507010249 | 69 | 17 | 10.0 | 9.0 | 0.00 | 0.00 | 0.00 | ||
| 20260507005749 | 69 | 44 | 7.0 | 9.0 | 0.00 | 0.00 | 0.00 | ||
| 20260507005249 | 70 | 46 | 6.0 | 5.0 | 0.00 | 0.00 | 0.00 | ||
| 20260507004746 | 70 | 38 | 9.0 | 11.0 | 0.00 | 0.00 | 0.00 | ||
| 20260507003746 | 70 | 89 | 8.0 | 8.0 | 0.00 | 0.00 | 0.00 | ||
| 20260507003244 | 70 | 45 | 10.0 | 9.0 | 0.00 | 0.00 | 0.00 | ||
| 20260507002744 | 70 | 44 | 9.0 | 8.0 | 0.00 | 0.00 | 0.00 | ||
| 20260507002244 | 70 | 52 | 11.0 | 11.0 | 0.00 | 0.00 | 0.00 | ||
| 20260507001243 | 70 | 38 | 11.0 | 11.0 | 0.00 | 0.00 | 0.00 | ||
| 20260507000743 | 71 | 42 | 10.0 | 8.0 | 0.00 | 0.00 | 0.00 | ||
| 20260506235741 | 71 | 65 | 8.0 | 10.0 | 0.00 | 0.00 | 0.00 | ||
| 20260506234738 | 71 | 80 | 8.0 | 8.0 | 0.00 | 0.00 | 0.00 | ||
| 20260506234239 | 71 | 63 | 9.0 | 5.0 | 0.00 | 0.00 | 0.00 | ||
| 20260506233739 | 71 | 53 | 8.0 | 8.0 | 0.00 | 0.00 | 0.00 | ||
| 20260506233237 | 71 | 53 | 7.0 | 7.0 | 0.00 | 0.00 | 0.00 | ||
| 20260506232737 | 71 | 27 | 8.0 | 7.0 | 0.00 | 0.00 | 0.00 | ||
| 20260506232238 | 71 | 60 | 6.0 | 6.0 | 0.00 | 0.00 | 0.00 | ||
| 20260506231735 | 71 | 62 | 8.0 | 6.0 | 0.00 | 0.00 | 0.00 | ||
| 20260506231236 | 71 | 51 | 9.0 | 10.0 | 0.00 | 0.00 | 0.00 | ||
| 20260506230736 | 72 | 60 | 8.0 | 6.0 | 0.00 | 0.00 | 0.00 | ||
| 20260506230234 | 72 | 27 | 5.0 | 7.0 | 0.00 | 0.00 | 0.00 | ||
| 20260506225734 | 72 | 65 | 7.0 | 7.0 | 0.00 | 0.00 | 0.00 | ||
| 20260506225235 | 72 | 108 | 8.0 | 6.0 | 0.00 | 0.00 | 0.00 | ||
| 20260506224732 | 72 | 101 | 6.0 | 6.0 | 0.00 | 0.00 | 0.00 | ||
| 20260506224233 | 72 | 42 | 6.0 | 12.0 | 0.00 | 0.00 | 0.00 | ||
| 20260506223733 | 72 | 94 | 7.0 | 7.0 | 0.00 | 0.00 | 0.00 | ||
| 20260506222731 | 72 | 89 | 6.0 | 6.0 | 0.00 | 0.00 | 0.00 | ||
| 20260506222232 | 72 | 56 | 6.0 | 5.0 | 0.00 | 0.00 | 0.00 | ||
| 20260506221729 | 72 | 15 | 7.0 | 7.0 | 0.00 | 0.00 | 0.00 | ||
| 20260506221230 | 72 | 41 | 5.0 | 6.0 | 0.00 | 0.00 | 0.00 | ||
| 20260506220730 | 72 | 82 | 5.0 | 5.0 | 0.00 | 0.00 | 0.00 | ||
| 20260506220228 | 72 | 100 | 3.0 | 4.0 | 0.00 | 0.00 | 0.00 | ||
| 20260506215728 | 72 | 39 | 3.0 | 1.0 | 0.00 | 0.00 | 0.00 | ||
| 20260506215229 | 71 | 8 | 3.0 | 1.0 | 0.00 | 0.00 | 0.00 | ||
| 20260506214726 | 71 | 42 | 3.0 | 0.0 | 0.00 | 0.00 | 0.00 | ||
| 20260506214227 | 72 | 35 | 0.0 | 6.0 | 0.00 | 0.00 | 0.00 | ||
| 20260506213727 | 72 | 60 | 9.0 | 6.0 | 0.00 | 0.00 | 0.00 | ||
| 20260506213225 | 72 | 104 | 4.0 | 4.0 | 0.00 | 0.00 | 0.00 | ||
| 20260506212725 | 71 | 28 | 5.0 | 0.0 | 0.00 | 0.00 | 0.00 | ||
| 20260506212226 | 71 | 32 | 8.0 | 8.0 | 0.00 | 0.00 | 0.00 | ||
| 20260506211723 | 70 | 39 | 5.0 | 5.0 | 0.00 | 0.00 | 0.00 | ||
| 20260506211224 | 70 | 11 | 5.0 | 9.0 | 0.00 | 0.00 | 0.00 | ||
| 20260506210724 | 69 | 42 | 5.0 | 3.0 | 0.00 | 0.00 | 0.00 | ||
| 20260506210222 | 70 | 59 | 4.0 | 2.0 | 0.00 | 0.00 | 0.00 | ||
| 20260506205722 | 70 | 55 | 5.0 | 7.0 | 0.00 | 0.00 | 0.00 | ||
| 20260506205223 | 70 | 28 | 6.0 | 5.0 | 0.00 | 0.00 | 0.00 | ||
| 20260506204720 | 70 | 65 | 6.0 | 3.0 | 0.00 | 0.00 | 0.00 | ||
| 20260506204221 | 69 | 72 | 8.0 | 8.0 | 0.00 | 0.00 | 0.00 | ||
| 20260506203721 | 69 | 58 | 4.0 | 5.0 | 0.00 | 0.00 | 0.00 | ||
| 20260506202719 | 70 | 39 | 5.0 | 9.0 | 0.00 | 0.00 | 0.00 | ||
| 20260506202220 | 69 | 82 | 7.0 | 5.0 | 0.00 | 0.00 | 0.00 | ||
| 20260506201718 | 69 | 44 | 6.0 | 7.0 | 0.00 | 0.00 | 0.00 | ||
| 20260506201218 | 69 | 87 | 6.0 | 3.0 | 0.00 | 0.00 | 0.00 | ||
| 20260506200719 | 68 | 37 | 9.0 | 6.0 | 0.00 | 0.00 | 0.00 | ||
| 20260506200216 | 69 | 63 | 7.0 | 8.0 | 0.00 | 0.00 | 0.00 | ||
| 20260506195717 | 68 | 39 | 7.0 | 6.0 | 0.00 | 0.00 | 0.00 | ||
| 20260506195217 | 67 | 330 | 7.0 | 5.0 | 0.00 | 0.00 | 0.00 | ||
| 20260506194715 | 67 | 60 | 10.0 | 7.0 | 0.00 | 0.00 | 0.00 | ||
| 20260506194215 | 67 | 14 | 9.0 | 6.0 | 0.00 | 0.00 | 0.00 | ||
| 20260506193716 | 67 | 17 | 9.0 | 6.0 | 0.00 | 0.00 | 0.00 | ||
| 20260506193214 | 67 | 10 | 6.0 | 0.0 | 0.00 | 0.00 | 0.00 | ||
| 20260506192714 | 65 | 72 | 8.0 | 10.0 | 0.00 | 0.00 | 0.00 | ||
| 20260506192214 | 64 | 70 | 6.0 | 4.0 | 0.00 | 0.00 | 0.00 | ||
| 20260506191711 | 64 | 18 | 9.0 | 10.0 | 0.00 | 0.00 | 0.00 | ||
| 20260506191212 | 63 | 68 | 7.0 | 7.0 | 0.00 | 0.00 | 0.00 | ||
| 20260506190712 | 63 | 80 | 7.0 | 5.0 | 0.00 | 0.00 | 0.00 | ||
| 20260506190210 | 63 | 30 | 7.0 | 5.0 | 0.00 | 0.00 | 0.00 | ||
| 20260506185709 | 64 | 72 | 7.0 | 8.0 | 0.00 | 0.00 | 0.00 | ||
| 20260506184707 | 63 | 94 | 5.0 | 6.0 | 0.00 | 0.00 | 0.00 | ||
| 20260506184208 | 62 | 60 | 9.0 | 9.0 | 0.00 | 0.00 | 0.00 | ||
| 20260506183708 | 62 | 65 | 9.0 | 7.0 | 0.00 | 0.00 | 0.00 | ||
| 20260506183206 | 63 | 66 | 7.0 | 7.0 | 0.00 | 0.00 | 0.00 | ||
| 20260506182706 | 63 | 3 | 9.0 | 9.0 | 0.00 | 0.00 | 0.00 | ||
| 20260506182207 | 63 | 62 | 9.0 | 7.0 | 0.00 | 0.00 | 0.00 | ||
| 20260506181704 | 63 | 77 | 6.0 | 7.0 | 0.00 | 0.00 | 0.00 | ||
| 20260506181205 | 64 | 23 | 6.0 | 8.0 | 0.00 | 0.00 | 0.00 | ||
| 20260506180705 | 63 | 28 | 5.0 | 3.0 | 0.00 | 0.00 | 0.00 | ||
| 20260506180203 | 63 | 86 | 6.0 | 5.0 | 0.00 | 0.00 | 0.00 | ||
| 20260506175703 | 63 | 30 | 8.0 | 7.0 | 0.00 | 0.00 | 0.00 | ||
| 20260506175204 | 63 | 39 | 7.0 | 7.0 | 0.00 | 0.00 | 0.00 | ||
| 20260506174701 | 62 | 51 | 6.0 | 5.0 | 0.00 | 0.00 | 0.00 | ||
| 20260506174202 | 64 | 4 | 8.0 | 7.0 | 0.00 | 0.00 | 0.00 | ||
| 20260506174022 | 63 | 30 | 7.0 | 7.0 | 0.00 | 0.00 | 0.00 | ||
| 20260506173702 | 63 | 30 | 7.0 | 7.0 | 0.00 | 0.00 | 0.00 | ||
| 20260506173200 | 63 | 13 | 4.0 | 9.0 | 0.00 | 0.00 | 0.00 | ||
| 20260506172700 | 63 | 10 | 7.0 | 5.0 | 0.00 | 0.00 | 0.00 | ||
| 20260506172201 | 63 | 24 | 5.0 | 6.0 | 0.00 | 0.00 | 0.00 | ||
| 20260506171659 | 62 | 24 | 7.0 | 7.0 | 0.00 | 0.00 | 0.00 | ||
| 20260506171159 | 62 | 34 | 3.0 | 2.0 | 0.00 | 0.00 | 0.00 | ||
| 20260506170700 | 63 | 339 | 8.0 | 9.0 | 0.00 | 0.00 | 0.00 | ||
| 20260506170157 | 63 | 329 | 9.0 | 7.0 | 0.00 | 0.00 | 0.00 | ||
| 20260506165658 | 62 | 352 | 9.0 | 10.0 | 0.00 | 0.00 | 0.00 | ||
| 20260506165158 | 61 | 338 | 10.0 | 9.0 | 0.00 | 0.00 | 0.00 | ||
| 20260506164743 | 62 | 353 | 4.0 | 5.0 | 0.00 | 0.00 | 0.00 | ||
| 20260506164656 | 62 | 353 | 4.0 | 5.0 | 0.00 | 0.00 | 0.00 | ||
| 20260506164156 | 62 | 32 | 10.0 | 8.0 | 0.00 | 0.00 | 0.00 | ||
| 20260506163656 | 61 | 359 | 6.0 | 6.0 | 0.00 | 0.00 | 0.00 | ||
| 20260506163155 | 61 | 359 | 7.0 | 5.0 | 0.00 | 0.00 | 0.00 | ||
| 20260506162654 | 61 | 343 | 8.0 | 6.0 | 0.00 | 0.00 | 0.00 | ||
| 20260506162155 | 61 | 338 | 8.0 | 9.0 | 0.00 | 0.00 | 0.00 | ||
| 20260506161653 | 60 | 11 | 9.0 | 7.0 | 0.00 | 0.00 | 0.00 | ||
| 20260506161153 | 60 | 346 | 7.0 | 5.0 | 0.00 | 0.00 | 0.00 | ||
| 20260506160654 | 59 | 4 | 7.0 | 7.0 | 0.00 | 0.00 | 0.00 | ||
| 20260506160151 | 59 | 3 | 8.0 | 10.0 | 0.00 | 0.00 | 0.00 | ||
| 20260506155652 | 58 | 14 | 8.0 | 8.0 | 0.00 | 0.00 | 0.00 | ||
| 20260506155152 | 58 | 4 | 6.0 | 9.0 | 0.00 | 0.00 | 0.00 | ||
| 20260506154806 | 57 | 353 | 6.0 | 3.0 | 0.00 | 0.00 | 0.00 | ||
| 20260506154650 | 57 | 353 | 6.0 | 3.0 | 0.00 | 0.00 | 0.00 | ||
| 20260506154150 | 57 | 350 | 6.0 | 6.0 | 0.00 | 0.00 | 0.00 | ||
| 20260506153650 | 57 | 39 | 7.0 | 7.0 | 0.00 | 0.00 | 0.00 | ||
| 20260506153148 | 57 | 39 | 6.0 | 8.0 | 0.00 | 0.00 | 0.00 | ||
| 20260506152648 | 57 | 24 | 7.0 | 7.0 | 0.00 | 0.00 | 0.00 | ||
| 20260506152149 | 56 | 20 | 9.0 | 7.0 | 0.00 | 0.00 | 0.00 | ||
| 20260506151646 | 57 | 333 | 9.0 | 9.0 | 0.00 | 0.00 | 0.00 | ||
| 20260506151147 | 56 | 359 | 10.0 | 8.0 | 0.00 | 0.00 | 0.00 | ||
| 20260506150647 | 57 | 328 | 10.0 | 9.0 | 0.00 | 0.00 | 0.00 | ||
| 20260506150145 | 57 | 329 | 9.0 | 10.0 | 0.00 | 0.00 | 0.00 | ||
| 20260506145645 | 56 | 323 | 10.0 | 9.0 | 0.00 | 0.00 | 0.00 | ||
| 20260506145146 | 56 | 326 | 9.0 | 9.0 | 0.00 | 0.00 | 0.00 | ||
| 20260506144144 | 56 | 330 | 8.0 | 7.0 | 0.00 | 0.00 | 0.00 | ||
| 20260506143645 | 55 | 328 | 9.0 | 6.0 | 0.00 | 0.00 | 0.00 | ||
| 20260506143403 | 55 | 335 | 11.0 | 9.0 | 0.00 | 0.00 | 0.00 | ||
| 20260506143142 | 55 | 335 | 11.0 | 9.0 | 0.00 | 0.00 | 0.00 | ||
| 20260506142643 | 55 | 322 | 9.0 | 10.0 | 0.00 | 0.00 | 0.00 | ||
| 20260506142143 | 54 | 316 | 11.0 | 8.0 | 0.00 | 0.00 | 0.00 | ||
| 20260506141641 | 54 | 314 | 7.0 | 7.0 | 0.00 | 0.00 | 0.00 | ||
| 20260506141141 | 54 | 345 | 10.0 | 9.0 | 0.00 | 0.00 | 0.00 | ||
| 20260506140642 | 54 | 25 | 9.0 | 7.0 | 0.00 | 0.00 | 0.00 | ||
| 20260506140139 | 54 | 3 | 10.0 | 12.0 | 0.00 | 0.00 | 0.00 | ||
| 20260506135640 | 53 | 350 | 10.0 | 12.0 | 0.00 | 0.00 | 0.00 | ||
| 20260506135140 | 53 | 359 | 9.0 | 9.0 | 0.00 | 0.00 | 0.00 | ||
| 20260506134638 | 53 | 345 | 10.0 | 11.0 | 0.00 | 0.00 | 0.00 | ||
| 20260506134138 | 53 | 353 | 9.0 | 10.0 | 0.00 | 0.00 | 0.00 | ||
| 20260506133639 | 53 | 354 | 10.0 | 10.0 | 0.00 | 0.00 | 0.00 | ||
| 20260506133136 | 53 | 1 | 11.0 | 13.0 | 0.00 | 0.00 | 0.00 | ||
| 20260506132638 | 53 | 349 | 9.0 | 9.0 | 0.00 | 0.00 | 0.00 | ||
| 20260506132137 | 53 | 10 | 10.0 | 8.0 | 0.00 | 0.00 | 0.00 | ||
| 20260506131635 | 53 | 359 | 8.0 | 8.0 | 0.00 | 0.00 | 0.00 | ||
| 20260506131135 | 52 | 18 | 9.0 | 9.0 | 0.00 | 0.00 | 0.00 | ||
| 20260506130636 | 52 | 38 | 12.0 | 12.0 | 0.00 | 0.00 | 0.00 | ||
| 20260506130133 | 52 | 18 | 13.0 | 11.0 | 0.00 | 0.00 | 0.00 | ||
| 20260506125634 | 53 | 336 | 12.0 | 11.0 | 0.00 | 0.00 | 0.00 | ||
| 20260506125135 | 53 | 6 | 10.0 | 11.0 | 0.00 | 0.00 | 0.00 | ||
| 20260506124632 | 54 | 39 | 9.0 | 8.0 | 0.00 | 0.00 | 0.00 | ||
| 20260506124133 | 53 | 10 | 6.0 | 6.0 | 0.00 | 0.00 | 0.00 | ||
| 20260506123633 | 53 | 35 | 7.0 | 8.0 | 0.00 | 0.00 | 0.00 | ||
| 20260506123131 | 53 | 30 | 8.0 | 6.0 | 0.00 | 0.00 | 0.00 | ||
| 20260506122631 | 54 | 14 | 8.0 | 7.0 | 0.00 | 0.00 | 0.00 | ||
| 20260506122132 | 54 | 325 | 10.0 | 9.0 | 0.00 | 0.00 | 0.00 | ||
| 20260506121630 | 54 | 41 | 8.0 | 8.0 | 0.00 | 0.00 | 0.00 | ||
| 20260506121130 | 54 | 27 | 7.0 | 9.0 | 0.00 | 0.00 | 0.00 | ||
| 20260506120631 | 54 | 4 | 9.0 | 6.0 | 0.00 | 0.00 | 0.00 | ||
| 20260506120128 | 54 | 18 | 12.0 | 11.0 | 0.00 | 0.00 | 0.00 | ||
| 20260506115629 | 54 | 0 | 11.0 | 9.0 | 0.00 | 0.00 | 0.00 | ||
| 20260506115129 | 55 | 335 | 9.0 | 9.0 | 0.00 | 0.00 | 0.00 | ||
| 20260506114627 | 56 | 100 | 3.0 | 6.0 | 0.00 | 0.00 | 0.00 | ||
| 20260506114128 | 56 | 20 | 6.0 | 5.0 | 0.00 | 0.00 | 0.00 | ||
| 20260506113706 | 56 | 14 | 9.0 | 8.0 | 0.00 | 0.00 | 0.00 | ||
| 20260506113628 | 56 | 14 | 9.0 | 8.0 | 0.00 | 0.00 | 0.00 | ||
| 20260506113538 | 56 | 28 | 9.0 | 8.0 | 0.00 | 0.00 | 0.00 | ||
| 20260506113126 | 56 | 28 | 9.0 | 8.0 | 0.00 | 0.00 | 0.00 | ||
| 20260506112626 | 57 | 39 | 10.0 | 9.0 | 0.00 | 0.00 | 0.00 | ||
| 20260506112126 | 57 | 4 | 11.0 | 8.0 | 0.00 | 0.00 | 0.00 | ||
| 20260506111623 | 57 | 347 | 10.0 | 12.0 | 0.00 | 0.00 | 0.00 | ||
| 20260506111124 | 57 | 342 | 13.0 | 9.0 | 0.00 | 0.00 | 0.00 | ||
| 20260506110624 | 57 | 340 | 8.0 | 8.0 | 0.00 | 0.00 | 0.00 | ||
| 20260506110122 | 57 | 345 | 8.0 | 8.0 | 0.00 | 0.00 | 0.00 | ||
| 20260506105623 | 58 | 27 | 7.0 | 7.0 | 0.00 | 0.00 | 0.00 | ||
| 20260506105123 | 57 | 21 | 8.0 | 7.0 | 0.00 | 0.00 | 0.00 | ||
| 20260506104621 | 57 | 10 | 7.0 | 8.0 | 0.00 | 0.00 | 0.00 | ||
| 20260506104121 | 58 | 359 | 6.0 | 7.0 | 0.00 | 0.00 | 0.00 | ||
| 20260506103622 | 58 | 20 | 8.0 | 7.0 | 0.00 | 0.00 | 0.00 | ||
| 20260506103120 | 58 | 23 | 6.0 | 7.0 | 0.00 | 0.00 | 0.00 | ||
| 20260506102620 | 58 | 1 | 8.0 | 9.0 | 0.00 | 0.00 | 0.00 | ||
| 20260506102121 | 58 | 11 | 7.0 | 8.0 | 0.00 | 0.00 | 0.00 | ||
| 20260506101618 | 58 | 28 | 8.0 | 7.0 | 0.00 | 0.00 | 0.00 | ||
| 20260506101119 | 59 | 350 | 7.0 | 6.0 | 0.00 | 0.00 | 0.00 | ||
| 20260506100619 | 59 | 17 | 7.0 | 6.0 | 0.00 | 0.00 | 0.00 | ||
| 20260506100117 | 58 | 352 | 8.0 | 9.0 | 0.00 | 0.00 | 0.00 | ||
| 20260506095617 | 58 | 356 | 8.0 | 7.0 | 0.00 | 0.00 | 0.00 | ||
| 20260506095118 | 59 | 352 | 7.0 | 5.0 | 0.00 | 0.00 | 0.00 | ||
| 20260506094616 | 59 | 354 | 6.0 | 8.0 | 0.00 | 0.00 | 0.00 | ||
| 20260506094116 | 59 | 326 | 6.0 | 6.0 | 0.00 | 0.00 | 0.00 | ||
| 20260506093617 | 59 | 10 | 6.0 | 6.0 | 0.00 | 0.00 | 0.00 | ||
| 20260506093114 | 59 | 329 | 7.0 | 7.0 | 0.00 | 0.00 | 0.00 |